[[{"header":{"parameterUnit":"m.s-1","parameterCategory":1,"la1":30.2991,"la2":30.254,"lo1":-89.0895,"lo2":-89.0444,"dy":0.0017,"dx":0.0017,"nx":28,"ny":28,"refTime":"2025-07-24T09:00:00:Z","depth":0,"parameterNumber":2,"parameterNumberName":"U-component_of_WINDS"},"data":[0,0,0,0,0,0,0,0,0,0,0,0,0,0,0,0,0,0,0,0,0,0,0,0,0,0,0,0,0,0,0,0,0,0,0,0,0,0,0,0,0,0,0,0,0,0,0,0,0,0,0,0,0,0,0,0,0,0,-2.6479,-2.648,0,-2.6535,-2.6535,-2.6536,-2.6535,-2.6534,-2.6534,-2.6533,-2.6588,-2.6591,-2.6593,0,0,0,0,0,0,0,0,0,0,0,0,0,-2.6372,-2.6374,-2.6479,-2.648,-2.6481,-2.6535,-2.6535,-2.6536,-2.6535,-2.6534,-2.6533,-2.6533,-2.6588,-2.659,-2.6593,0,0,0,0,0,0,0,0,0,0,0,0,0,-2.6422,-2.6375,-2.6479,-2.6487,-2.6488,-2.6534,-2.6535,-2.6536,-2.6535,-2.6534,-2.6533,-2.6532,-2.6587,-2.659,-2.6593,-2.6635,0,0,-2.6603,-2.6605,0,0,0,0,0,0,0,0,-2.6419,-2.6426,-2.6485,-2.6486,-2.6488,-2.6527,-2.6518,-2.657,-2.6536,-2.6517,-2.6533,-2.6532,-2.6569,-2.6573,-2.6586,-2.6638,-2.664,-2.6603,-2.6605,-2.6607,-2.6608,0,0,0,0,0,0,0,-2.6416,-2.6424,-2.6501,-2.6486,-2.6488,-2.6487,-2.6493,-2.6528,-2.6549,-2.6519,-2.6519,-2.6526,-2.6569,-2.6583,-2.6587,-2.6641,-2.6603,-2.6606,-2.6608,-2.661,-2.6731,-2.6732,0,0,0,0,0,0,-2.6411,-2.6421,-2.6499,-2.6503,-2.645,-2.649,-2.6497,-2.6515,-2.6548,-2.6552,-2.6526,-2.6525,-2.6578,-2.6584,-2.6589,-2.6641,-2.6607,-2.661,-2.6612,-2.673,-2.6731,-2.6733,0,0,0,0,0,0,-2.6409,-2.6418,-2.6497,-2.6462,-2.6472,-2.6493,-2.6514,-2.6517,-2.6531,-2.6554,-2.6558,-2.6537,-2.6577,-2.6585,-2.6624,-2.6643,-2.6611,-2.6614,-2.6728,-2.673,-2.6732,-2.6745,0,0,0,0,0,0,-2.6406,-2.6417,-2.6433,-2.6462,-2.6474,-2.6531,-2.6515,-2.6519,-2.6537,-2.6536,-2.6565,-2.6568,-2.6577,-2.6619,-2.6627,-2.6647,-2.6617,-2.6727,-2.6729,-2.6731,-2.6743,-2.6747,-2.675,0,0,0,0,0,-2.6402,-2.6435,-2.6434,-2.6444,-2.6495,-2.6532,-2.6539,-2.6549,-2.6538,-2.6555,-2.657,-2.6567,-2.664,-2.6623,-2.6633,-2.6653,-2.6726,-2.6728,-2.6731,-2.6741,-2.6746,-2.675,0,0,0,0,0,0,-2.6407,-2.6438,-2.6438,-2.6482,-2.6504,-2.6532,-2.6553,-2.6554,-2.658,-2.6577,-2.6588,-2.6595,-2.6634,-2.6648,-2.6629,-2.6696,-2.6681,-2.6686,-2.6686,-2.6691,-2.6694,-2.669,-2.6619,0,0,0,0,0,-2.6413,-2.6441,-2.6467,-2.6503,-2.6514,-2.6532,-2.6548,-2.6554,-2.6578,-2.6587,-2.6605,-2.6628,-2.6656,-2.6674,-2.6701,-2.6745,-2.6751,-2.6764,-2.6768,-2.6771,-2.6775,-2.6799,-2.6805,-2.6742,-2.6742,-2.6742,0,0,-2.6426,-2.6447,-2.6464,-2.6504,-2.6522,-2.6551,-2.654,-2.657,-2.6592,-2.6592,-2.663,-2.6644,-2.6671,-2.6712,-2.6732,-2.6725,-2.6793,-2.6774,-2.6777,-2.6779,-2.6802,-2.6808,-2.6813,-2.6744,-2.6744,-2.6743,0,0,-2.6464,-2.6483,-2.6514,-2.6533,-2.6561,-2.6573,-2.658,-2.6608,-2.6618,-2.6657,-2.6658,-2.6683,-2.6731,-2.675,-2.6766,-2.6812,-2.6811,-2.6821,-2.684,-2.6864,-2.6869,-2.6873,-2.6889,-2.6895,-2.6825,-2.6825,-2.6825,0,-2.6476,-2.652,-2.653,-2.6561,-2.6579,-2.6582,-2.6614,-2.6631,-2.6667,-2.6679,-2.6671,-2.6732,-2.675,-2.6796,-2.6807,-2.682,-2.6829,-2.6817,-2.6867,-2.6872,-2.6876,-2.6892,-2.6898,-2.6826,-2.6825,-2.6825,-2.6825,0,-2.6533,-2.6563,-2.6586,-2.662,-2.6641,-2.6672,-2.6688,-2.6707,-2.6711,-2.6724,-2.6763,-2.6785,-2.6817,-2.6829,-2.6833,-2.6876,-2.6871,-2.6865,-2.685,-2.6883,-2.6898,-2.6904,-2.6827,-2.6827,-2.6826,-2.6826,0,0,-2.6575,-2.6616,-2.6624,-2.664,-2.6671,-2.6695,-2.6726,-2.6758,-2.6774,-2.6799,-2.6825,-2.6867,-2.6862,-2.688,-2.6886,-2.6907,-2.6942,-2.6899,-2.69,-2.6906,-2.6991,-2.6994,-2.7001,-2.6942,-2.6943,-2.6944,-2.6988,0,-2.6616,-2.6672,-2.6684,-2.6732,-2.676,-2.6764,-2.6791,-2.6814,-2.6826,-2.6852,-2.6866,-2.6895,-2.6886,-2.6897,-2.6918,-2.6934,-2.6959,-2.6931,-2.6967,-2.6968,-2.6959,-2.7009,-2.7013,-2.7053,-2.6994,-2.6995,-2.6996,0,-2.6671,-2.6698,-2.6749,-2.6778,-2.679,-2.6815,-2.6844,-2.6869,-2.6894,-2.6902,-2.6923,-2.6927,-2.696,-2.6945,-2.6991,-2.6971,-2.6986,-2.6996,-2.6998,-2.7001,-2.6983,-2.7013,-2.7066,-2.7072,-2.7005,-2.7004,-2.7004,0,-2.6696,-2.6745,-2.6782,-2.6796,-2.683,-2.6847,-2.6862,-2.6886,-2.6905,-2.6931,-2.6943,-2.6972,-2.6988,-2.7011,-2.7024,-2.7011,-2.7068,-2.7054,-2.7075,-2.7075,-2.7086,-2.7085,-2.7143,-2.7098,-2.7098,-2.7097,-2.7097,0,-2.6741,-2.6772,-2.6794,-2.6817,-2.6852,-2.6865,-2.6899,-2.6914,-2.6936,-2.6962,-2.6966,-2.699,-2.7006,-2.7032,-2.7042,-2.7078,-2.7085,-2.7092,-2.7095,-2.7092,-2.7091,-2.7101,-2.7099,-2.7099,-2.7099,-2.7098,-2.7098,0,-2.6774,-2.679,-2.6831,-2.686,-2.6868,-2.6893,-2.6918,-2.694,-2.6953,-2.6986,-2.6994,-2.7015,-2.7046,-2.7061,-2.7099,-2.7106,-2.7147,-2.7147,-2.7138,-2.7139,-2.716,-2.7157,-2.7225,-2.7234,-2.7184,-2.7184,-2.7184,0,-2.6801,-2.6826,-2.6857,-2.6875,-2.6891,-2.6919,-2.6938,-2.6951,-2.6971,-2.7002,-2.7021,-2.7052,-2.7078,-2.7128,-2.7146,-2.7176,-2.7177,-2.7198,-2.7181,-2.7177,-2.7176,-2.7175,-2.7177,-2.7201,-2.7202,-2.7202,-2.7202,0,-2.6847,-2.6854,-2.6881,-2.6912,-2.6934,-2.6958,-2.6982,-2.6996,-2.7014,-2.7035,-2.7068,-2.7088,-2.7127,-2.7158,-2.719,-2.7205,-2.7206,-2.7208,-2.7214,-2.7211,-2.7205,-2.7208,-2.7146,-2.7206,-2.7206,-2.7205,-2.7205,-2.7205,-2.6879,-2.69,-2.6926,-2.6956,-2.6976,-2.6998,-2.7021,-2.7037,-2.7064,-2.7098,-2.7104,-2.7138,-2.7163,-2.7205,-2.7222,-2.7248,-2.7243,-2.7253,-2.7255,-2.7257,-2.7258,-2.7201,-2.7254,-2.7254,-2.7254,-2.7254,-2.7254,0,-2.6925,-2.6942,-2.697,-2.7003,-2.7027,-2.7027,-2.7053,-2.7073,-2.7103,-2.7127,-2.7152,-2.7189,-2.722,-2.7241,-2.7272,-2.7289,-2.7291,-2.7297,-2.7295,-2.7299,-2.7261,-2.7252,-2.7295,-2.7295,-2.7295,-2.7295,-2.7295,-2.7295,-2.6952,-2.6989,-2.6999,-2.7045,-2.7062,-2.7096,-2.7111,-2.7132,-2.715,-2.7192,-2.7217,-2.7231,-2.7253,-2.7286,-2.7314,-2.7319,-2.733,-2.7336,-2.7341,-2.7306,-2.7301,-2.7297,-2.7289,-2.7338,-2.7339,-2.7377,-2.7377,-2.7377]},{"header":{"parameterUnit":"m.s-1","parameterCategory":1,"la1":30.2991,"la2":30.254,"lo1":-89.0895,"lo2":-89.0444,"dy":0.0017,"dx":0.0017,"nx":28,"ny":28,"refTime":"2025-07-24T09:00:00:Z","depth":0,"parameterNumber":3,"parameterNumberName":"V-component_of_WINDS"},"data":[0,0,0,0,0,0,0,0,0,0,0,0,0,0,0,0,0,0,0,0,0,0,0,0,0,0,0,0,0,0,0,0,0,0,0,0,0,0,0,0,0,0,0,0,0,0,0,0,0,0,0,0,0,0,0,0,0,0,5.715,5.715,0,5.7186,5.7186,5.7187,5.7129,5.7127,5.7125,5.7123,5.7157,5.716,5.7163,0,0,0,0,0,0,0,0,0,0,0,0,0,5.7028,5.703,5.715,5.715,5.715,5.7186,5.7186,5.7187,5.7129,5.7127,5.7125,5.7122,5.7156,5.7159,5.7163,0,0,0,0,0,0,0,0,0,0,0,0,0,5.7074,5.7031,5.7149,5.7126,5.7124,5.7186,5.7186,5.7187,5.713,5.7127,5.7124,5.7121,5.7155,5.7159,5.7163,5.7248,0,0,5.7176,5.7178,0,0,0,0,0,0,0,0,5.7071,5.7079,5.7129,5.7128,5.7126,5.715,5.7156,5.7207,5.7131,5.7128,5.7123,5.712,5.7157,5.7161,5.7174,5.7249,5.7251,5.7176,5.7179,5.718,5.7182,0,0,0,0,0,0,0,5.7068,5.7077,5.7164,5.713,5.7128,5.7113,5.7116,5.7165,5.7158,5.7128,5.7124,5.7129,5.7155,5.717,5.7174,5.7251,5.7176,5.718,5.7182,5.7184,5.7398,5.7401,0,0,0,0,0,0,5.7068,5.7074,5.7163,5.7165,5.7091,5.7118,5.7121,5.7145,5.7158,5.7157,5.7131,5.7126,5.7164,5.717,5.7175,5.7275,5.718,5.7184,5.7187,5.7395,5.7399,5.7402,0,0,0,0,0,0,5.7066,5.7077,5.7161,5.7119,5.7128,5.7123,5.715,5.7147,5.7162,5.7161,5.7159,5.7148,5.7162,5.7169,5.723,5.7275,5.7186,5.719,5.7391,5.7396,5.74,5.7475,0,0,0,0,0,0,5.7063,5.7076,5.7109,5.712,5.7131,5.7217,5.7153,5.715,5.717,5.7163,5.7175,5.7174,5.7161,5.7225,5.7235,5.7279,5.7193,5.7387,5.7393,5.7399,5.7468,5.7482,5.7493,0,0,0,0,0,5.7059,5.7128,5.7111,5.7122,5.7172,5.7219,5.7225,5.7209,5.7174,5.7206,5.7205,5.7174,5.7269,5.7231,5.7242,5.7289,5.7384,5.7391,5.7398,5.7463,5.7479,5.7493,0,0,0,0,0,0,5.7121,5.7129,5.711,5.7185,5.7202,5.721,5.725,5.7227,5.7253,5.7246,5.7223,5.7227,5.7292,5.7296,5.7254,5.7371,5.732,5.733,5.7366,5.7381,5.7393,5.739,5.7196,0,0,0,0,0,5.7144,5.7183,5.7187,5.7253,5.7263,5.7255,5.7275,5.7261,5.7278,5.7284,5.7288,5.7304,5.7337,5.7359,5.739,5.7469,5.747,5.7506,5.7519,5.7529,5.7537,5.7579,5.7595,5.7426,5.7426,5.7426,0,0,5.7191,5.72,5.7226,5.7266,5.7277,5.7317,5.7261,5.7306,5.7335,5.729,5.7348,5.7352,5.7368,5.7439,5.747,5.7444,5.7584,5.7538,5.7546,5.7549,5.7588,5.7604,5.7618,5.7431,5.743,5.7429,0,0,5.7296,5.7308,5.7364,5.7377,5.7395,5.739,5.7404,5.7415,5.7416,5.7474,5.7441,5.7475,5.7533,5.7547,5.7561,5.7673,5.7645,5.7684,5.7747,5.7788,5.7801,5.7813,5.7852,5.7867,5.7692,5.7692,5.7692,0,5.7352,5.7412,5.7395,5.7442,5.7461,5.7423,5.7479,5.7492,5.752,5.7533,5.7505,5.7577,5.7586,5.7658,5.7686,5.7699,5.7713,5.7681,5.7801,5.7813,5.7823,5.786,5.7875,5.7697,5.7696,5.7696,5.7695,0,5.7479,5.7521,5.7564,5.7593,5.7616,5.7667,5.7657,5.7683,5.7667,5.7665,5.7724,5.7733,5.7765,5.7782,5.7766,5.7852,5.7836,5.7805,5.7753,5.7844,5.7878,5.7893,5.7703,5.7701,5.77,5.7699,0,0,5.7623,5.7643,5.7659,5.7671,5.769,5.7722,5.7771,5.7804,5.7826,5.7846,5.7887,5.7937,5.7909,5.7925,5.7911,5.7947,5.8035,5.7912,5.7912,5.7933,5.8129,5.8152,5.8169,5.8017,5.802,5.8022,5.8128,0,5.7728,5.7814,5.7801,5.7884,5.7923,5.7888,5.7932,5.7947,5.7947,5.7978,5.7977,5.8013,5.7973,5.7983,5.8018,5.8017,5.8074,5.8009,5.8053,5.8055,5.8049,5.8187,5.821,5.831,5.8141,5.8143,5.8145,0,5.7861,5.7888,5.7975,5.7988,5.8004,5.8043,5.8071,5.8103,5.812,5.8116,5.8136,5.8115,5.8164,5.8113,5.8179,5.8136,5.8153,5.8156,5.816,5.8162,5.8105,5.8192,5.8341,5.8355,5.8166,5.8165,5.8163,0,5.7957,5.8014,5.8074,5.8086,5.8103,5.8131,5.8139,5.8153,5.8174,5.8199,5.8211,5.8242,5.8258,5.8281,5.8269,5.8233,5.8338,5.8286,5.8335,5.8336,5.8358,5.8356,5.8511,5.8371,5.8371,5.8371,5.837,0,5.8074,5.8129,5.8117,5.8154,5.8214,5.8198,5.8258,5.8261,5.8275,5.8311,5.8283,5.8317,5.83,5.8333,5.8324,5.838,5.8388,5.8386,5.8383,5.8388,5.8388,5.8398,5.839,5.8375,5.8374,5.8373,5.8372,0,5.819,5.8185,5.8248,5.8259,5.8263,5.8307,5.8316,5.835,5.8348,5.8394,5.8404,5.84,5.8437,5.8428,5.8469,5.8463,5.8533,5.8522,5.8528,5.8524,5.8574,5.8569,5.8739,5.8761,5.8609,5.861,5.8611,0,5.8265,5.8306,5.8322,5.8345,5.8356,5.8393,5.8414,5.84,5.8423,5.8446,5.8477,5.8512,5.8539,5.8601,5.8601,5.8632,5.862,5.8678,5.8624,5.8628,5.862,5.8617,5.8621,5.8688,5.869,5.8691,5.8692,0,5.8398,5.8393,5.8425,5.8457,5.8483,5.8507,5.8528,5.8548,5.8535,5.8563,5.8601,5.8623,5.8665,5.87,5.8728,5.8735,5.8712,5.8709,5.8722,5.8727,5.8729,5.8728,5.8555,5.8705,5.8704,5.8703,5.8702,5.8702,5.8495,5.853,5.8547,5.8583,5.8598,5.8619,5.8651,5.8654,5.8686,5.872,5.8709,5.8753,5.8769,5.8805,5.8816,5.885,5.8828,5.8847,5.8852,5.8856,5.8862,5.8725,5.8855,5.8855,5.8854,5.8854,5.8854,0,5.8625,5.8635,5.8669,5.87,5.8728,5.8705,5.8727,5.8753,5.8792,5.8809,5.8837,5.8882,5.8916,5.892,5.8951,5.8978,5.8968,5.8986,5.8984,5.8986,5.888,5.8865,5.8994,5.8994,5.8994,5.8994,5.8994,5.8994,5.8696,5.8755,5.8753,5.8818,5.8826,5.887,5.8885,5.8903,5.8917,5.8968,5.8997,5.8999,5.9011,5.9044,5.9074,5.9074,5.9087,5.911,5.9106,5.9007,5.8993,5.898,5.8965,5.9113,5.9113,5.9208,5.9209,5.921]}]]